COSMOS 2251 DEB, 40228

Orbit data source: Space-Track

COSMOS 2251 DEB, 40228 is space debris in LEO originally from a launch on Wed, 16 Jun 1993 UTC launched from the Plesetsk Missile And Space Complex (PKMTR). The debris from Iridium 33, an American commercial communications satellite, has been tracked extensively since its accidental collision with the defunct Russian satellite Cosmos 2251 in 2009. This event, occurring at high speed in low Earth orbit (LEO), generated thousands of pieces of space debris, significantly increasing the risk of further collisions. The Iridium 33 debris cloud has impacted space traffic management and orbital debris mitigation strategies, making it a subject of ongoing study in space situational awareness.

Loading next visibility...
COSMOS 2251 DEB details
Identifier
40228, 1993-036BVH
Orbit
LEO
Last TLE update9 hours ago
Origin
Flag of CISKVR (CIS)
ManufacturerUnknown
MissionSpacecraft
Bus & MotorUnknown
MassUnknown
Launch date (UTC)
1993-06-16 (32 years ago)
Launch vehicleUnknown
Launch site
Plesetsk Missile And Space Complex (PKMTR)
Object type
Payload
Rocket body
Debris
Shape & HBRUnknown
Radar Cross SectionSmall (<0.1 m²)

Expand to show TLE details & history

TLE from 9 hours ago
0 COSMOS 2251 DEB
1 40228U 93036BVH 24361.29586909  .00002157  00000-0  69202-3 0  9998
2 40228  74.0533 189.7032 0023890 340.1933 192.8010 14.39909863674050
Epoch: 2024-12-26T07:06Z
Definitive object data (Epoch: 2024-12-26T07:06:03.089Z)
Latitude6.72366°
Longitude165.99286°
Altitude777.423 km
Speed7.457 km/s
True Right ascension00h 31m 07s
True Declination6° 41' 02"
Sunlit
Object was in daylight at TLE epoch
Visualization TLE readout
Latitude40.44311°
Longitude1.21017°
Altitude756.457 km
Speed7.484 km/s
Apparent Right ascension09h 19m 31s
Apparent Declination9° 38' 19"
Sunlit
Object is in daylight
Visualization observer readout
Local Sidereal Time15:52:07
Azimuth282.598° WNW
Elevation0.013°
Doppler factor1
Orbital elements
Apogee altitude773.459 km
Perigee altitude739.37 km
Semi-major axis7,134.551 km
Eccentricity0.002389
Inclination74.0533°
RAAN189.7032°
Arg. of periapsis340.1933°
True anomaly192.74052°
Mean anomaly192.801°
Eccentric anomaly192.77074°
Mean motion3.60158 °/min
BSTAR0.00069202
Orbital period99.96 mins
Loading maneuver chart data...

COSMOS 2251 DEB Visibility forecast

Observer location: undefined°, undefined

Span
Click to sort rows by Start time (UTC) header in descending order
Start Az.
Max El. time (UTC)
Max El. Az.
Max El.
End time (UTC)
End Az.
9 mins2024-12-26 23:31:57.023Z359.714° N2024-12-26 23:35:57.023Z62.747° ENE32.87°2024-12-26 23:40:57.023Z135.037° SSE
6 mins2024-12-27 01:14:57.023Z301.065° NW2024-12-27 01:17:57.023Z256.145° W21.61°2024-12-27 01:20:57.023Z216.402° SW
8 mins2024-12-27 14:06:57.023Z208.569° SW2024-12-27 14:10:57.023Z318.225° NNW42.861°2024-12-27 14:14:57.023Z13.063° NNE
|